Location: Krakow
(50.0830°N, 19.9170°E)
Time: 04:43:47
(UTC+02:00)

Tiros 1 - Pass Details

Date: 16 February 2023
Orbit: 627 x 662 km, 48.4° (Epoch: 25 March)

Event Time Altitude Azimuth Distance (km) Brightness Sun altitude
Rises 23:00:06 0° 277° (W) 2,912 - -50.5°
Reaches altitude 10° 23:02:27 10° 274° (W) 2,003 - -50.6°
Maximum altitude 23:06:58 58° 196° (SSW) 733 - -50.9°
Drops below altitude 10° 23:11:29 10° 117° (ESE) 2,006 - -51.1°
Sets 23:13:50 0° 113° (ESE) 2,916 - -51.2°
